Weather Service Report


155 
ASUS41 KCTP 281310
RWRCTP

REGIONAL WEATHER ROUNDUP
NATIONAL WEATHER SERVICE STATE COLLEGE PA
900 AM EDT TUE JUL 28 2015

Note: "fair" indicates few or no clouds below 12,000 feet with no 
significant weather and/or obstructions to visibility.

* = STATION THAT DOES NOT REPORT PRECIPITATION /E.G. RAIN...SNOW...ETC/
    THUNDER OR FOG.

PAZ002>004-007>009-013>016-020>023-029>032-281400-
WESTERN PENNSYLVANIA
  
CITY           SKY/WX    TMP DP  RH WIND       PRES   REMARKS
ERIE           SUNNY     79  63  57 CALM      30.05S                  
MEADVILLE      LGT RAIN  76  65  68 E3        30.09R                  
FRANKLIN*      SUNNY     72  63  73 E5        30.11R                  
NEW CASTLE     FAIR      74  69  84 CALM      30.07S                  
BEAVER COUNTY  SUNNY     75  68  78 E3        30.07R                  
BUTLER*        SUNNY     73  68  83 E8        30.09R                  
PITTSBURGH INT SUNNY     75  68  78 VRB3      30.05S                  
PITTSBURGH     SUNNY     74  66  76 VRB3      30.05R HAZE             
INDIANA*       SUNNY     72  70  94 CALM      30.11S                  
LATROBE        SUNNY     75  72  88 E8        30.07R                  
WASHINGTON CO* NOT AVBL                                               
$$

PAZ004>006-010>012-017>019-024>028-033>037-041-042-045-046-049>053-281400-
CENTRAL PENNSYLVANIA
  
CITY           SKY/WX    TMP DP  RH WIND       PRES   REMARKS
BRADFORD       SUNNY     72  64  76 CALM      30.13R                  
DUBOIS         SUNNY     73  66  78 CALM      30.10S HAZE             
CLEARFIELD     FOG       65  64  97 CALM      30.11R VSB<1/4          
JOHNSTOWN      MOSUNNY   70  68  93 E3        30.12R FOG              
ALTOONA        FOG       69  68  96 CALM      30.10R VSB<1/4          
STATE COLLEGE  FOG       66  66 100 CALM      30.09R VSB 1/8          
WILLIAMSPORT   CLOUDY    69  66  90 NW5       30.06R FOG              
SELINSGROVE    FOG       69  68  96 NW3       30.06S VSB 1/2          
FT INDIANTOWN  MOSUNNY   72  72 100 S3        30.04S FOG              
CAPITAL CITY   CLOUDY    75  71  87 CALM      30.04S FOG              
HARRISBURG     FOG       74  71  91 CALM      30.03S VSB 1            
YORK           FOG       73  72  96 CALM      30.05R VSB 1/4          
$$

PAZ038>040-043-044-047-048-054-055-060>062-067>071-281400-
EASTERN PENNSYLVANIA
  
CITY           SKY/WX    TMP DP  RH WIND       PRES   REMARKS
SCRANTON       SUNNY     69  66  90 CALM      30.07S                  
MOUNT POCONO   SUNNY     74  66  76 NW3       30.10S                  
ALLENTOWN      SUNNY     78  69  73 CALM      30.03S                  
QUAKERTOWN*    SUNNY     79  72  78 NW3       30.05S                  
READING        SUNNY     79  72  79 CALM      30.03R HAZE             
LANCASTER      CLOUDY    73  72  96 E3        30.04S FOG              
COATESVILLE    FOG       73  73 100 W3        30.06S VSB 1            
POTTSTOWN      CLOUDY    72  72 100 CALM      30.06R FOG              
BLUE BELL      SUNNY     79  73  83 CALM      30.03S                  
DOYLESTOWN     SUNNY     77  71  82 CALM      30.03S                  
WILLOW GROVE   NOT AVBL                                               
NORTH PHILA    SUNNY     81  70  69 CALM      30.04S                  
PHILADELPHIA   MOSUNNY   80  73  79 S5        30.02S                  
$$

Return to Home page


Western Regional Climate Center, wrcc@dri.edu